Station Historical Data
Daily Summary for June 5, 2017 Units:  English    Metric   Both
« Previous Day
Next Day »
Daily Weekly Monthly Yearly Custom
  High: Low: Average:
Temperature: 80.9 °F 58.0 °F 68.3 °F
Dew Point: 50.7 °F 26.8 °F 40.9 °F
Humidity: 55 % 14 % 38 %
Wind Speed: 14.0 mph 0.0 mph 1.3 mph
Wind Gust: 19.0 mph - -
Wind:- - SSE
Pressure: 29.90 in 29.86 in -
Precipitation: 0.00 in    
Historical Graphs
 
 
Tabular Data for June 5, 2017
Time Temperature Dew Point Pressure Wind Wind Speed Wind Gust Humidity Rainfall Rate (Hourly) solar
00:04 61.9 °F 42.5 °F 29.89 in East 6.0 mph 15.0 mph 49 % 0.00 in 0.00 W/m2
00:10 61.8 °F 42.5 °F 29.89 in East 8.0 mph 16.0 mph 49 % 0.00 in 0.00 W/m2
00:15 61.8 °F 42.5 °F 29.89 in East 8.0 mph 14.0 mph 49 % 0.00 in 0.00 W/m2
00:17 61.8 °F 41.9 °F 29.89 in ESE 13.0 mph 15.0 mph 48 % 0.00 in 0.00 W/m2
00:22 61.8 °F 42.5 °F 29.89 in ESE 9.0 mph 13.0 mph 49 % 0.00 in 0.00 W/m2
00:28 61.8 °F 41.9 °F 29.89 in Calm   14.0 mph 48 % 0.00 in 0.00 W/m2
00:33 61.9 °F 42.0 °F 29.89 in East 2.0 mph 16.0 mph 48 % 0.00 in 0.00 W/m2
00:38 61.9 °F 41.5 °F 29.89 in East 12.0 mph 15.0 mph 47 % 0.00 in 0.00 W/m2
00:43 61.9 °F 40.9 °F 29.89 in East 9.0 mph 12.0 mph 46 % 0.00 in 0.00 W/m2
00:48 62.0 °F 41.0 °F 29.89 in Calm   19.0 mph 46 % 0.00 in 0.00 W/m2
00:53 62.0 °F 40.4 °F 29.88 in Calm   15.0 mph 45 % 0.00 in 0.00 W/m2
00:58 62.0 °F 40.4 °F 29.89 in East 1.0 mph 15.0 mph 45 % 0.00 in 0.00 W/m2
01:03 62.0 °F 40.4 °F 29.89 in East 14.0 mph 18.0 mph 45 % 0.00 in 0.00 W/m2
01:08 62.0 °F 39.9 °F 29.88 in Calm   8.0 mph 44 % 0.00 in 0.00 W/m2
01:13 62.0 °F 39.9 °F 29.88 in Calm   15.0 mph 44 % 0.00 in 0.00 W/m2
01:18 62.0 °F 39.9 °F 29.88 in ESE 2.0 mph 5.0 mph 44 % 0.00 in 0.00 W/m2
01:23 62.0 °F 39.9 °F 29.88 in Calm   9.0 mph 44 % 0.00 in 0.00 W/m2
01:28 62.0 °F 39.9 °F 29.88 in Calm   12.0 mph 44 % 0.00 in 0.00 W/m2
01:33 62.0 °F 39.9 °F 29.88 in Calm   13.0 mph 44 % 0.00 in 0.00 W/m2
01:38 61.9 °F 39.8 °F 29.88 in Calm   6.0 mph 44 % 0.00 in 0.00 W/m2
01:43 61.9 °F 39.8 °F 29.88 in East 1.0 mph 4.0 mph 44 % 0.00 in 0.00 W/m2
01:48 61.8 °F 39.1 °F 29.88 in East 1.0 mph 5.0 mph 43 % 0.00 in 0.00 W/m2
01:53 61.7 °F 39.0 °F 29.88 in ESE 1.0 mph 5.0 mph 43 % 0.00 in 0.00 W/m2
01:58 61.7 °F 39.0 °F 29.88 in East 2.0 mph 6.0 mph 43 % 0.00 in 0.00 W/m2
02:03 61.7 °F 39.6 °F 29.88 in ESE 1.0 mph 6.0 mph 44 % 0.00 in 0.00 W/m2
02:08 61.6 °F 39.5 °F 29.88 in Calm   13.0 mph 44 % 0.00 in 0.00 W/m2
02:13 61.6 °F 38.9 °F 29.88 in Calm   9.0 mph 43 % 0.00 in 0.00 W/m2
02:18 61.5 °F 38.8 °F 29.88 in Calm   19.0 mph 43 % 0.00 in 0.00 W/m2
02:24 61.4 °F 38.7 °F 29.88 in Calm   13.0 mph 43 % 0.00 in 0.00 W/m2
02:29 61.4 °F 38.1 °F 29.88 in Calm   15.0 mph 42 % 0.00 in 0.00 W/m2
02:34 61.4 °F 38.1 °F 29.88 in East 1.0 mph 11.0 mph 42 % 0.00 in 0.00 W/m2
02:39 61.4 °F 37.5 °F 29.88 in East 12.0 mph 16.0 mph 41 % 0.00 in 0.00 W/m2
02:44 61.4 °F 38.1 °F 29.88 in Calm   14.0 mph 42 % 0.00 in 0.00 W/m2
02:49 61.4 °F 38.1 °F 29.88 in Calm   5.0 mph 42 % 0.00 in 0.00 W/m2
02:54 61.3 °F 37.4 °F 29.88 in ESE 1.0 mph 4.0 mph 41 % 0.00 in 0.00 W/m2
02:59 61.3 °F 38.0 °F 29.88 in East 1.0 mph 5.0 mph 42 % 0.00 in 0.00 W/m2
03:04 61.2 °F 37.3 °F 29.88 in East 1.0 mph 4.0 mph 41 % 0.00 in 0.00 W/m2
03:09 61.2 °F 36.7 °F 29.87 in Calm   5.0 mph 40 % 0.00 in 0.00 W/m2
03:14 61.1 °F 37.2 °F 29.87 in East 2.0 mph 6.0 mph 41 % 0.00 in 0.00 W/m2
03:19 61.1 °F 37.2 °F 29.87 in East 1.0 mph 5.0 mph 41 % 0.00 in 0.00 W/m2
03:24 61.0 °F 37.2 °F 29.87 in Calm   4.0 mph 41 % 0.00 in 0.00 W/m2
03:29 60.9 °F 37.7 °F 29.87 in Calm   4.0 mph 42 % 0.00 in 0.00 W/m2
03:34 60.9 °F 37.1 °F 29.87 in Calm   4.0 mph 41 % 0.00 in 0.00 W/m2
03:39 60.8 °F 36.3 °F 29.87 in ESE 1.0 mph 4.0 mph 40 % 0.00 in 0.00 W/m2
03:44 60.7 °F 36.9 °F 29.87 in ESE 1.0 mph 2.0 mph 41 % 0.00 in 0.00 W/m2
03:49 60.7 °F 37.5 °F 29.87 in East 1.0 mph 5.0 mph 42 % 0.00 in 0.00 W/m2
03:54 60.7 °F 36.9 °F 29.87 in Calm   2.0 mph 41 % 0.00 in 0.00 W/m2
03:59 60.6 °F 36.8 °F 29.87 in East 2.0 mph 2.0 mph 41 % 0.00 in 0.00 W/m2
04:04 60.5 °F 36.7 °F 29.87 in Calm   2.0 mph 41 % 0.00 in 0.00 W/m2
04:09 60.4 °F 36.6 °F 29.87 in Calm   2.0 mph 41 % 0.00 in 0.00 W/m2
04:14 60.4 °F 36.6 °F 29.87 in Calm   1.0 mph 41 % 0.00 in 0.00 W/m2
04:19 60.3 °F 36.5 °F 29.88 in Calm   2.0 mph 41 % 0.00 in 0.00 W/m2
04:24 60.2 °F 35.8 °F 29.87 in Calm   2.0 mph 40 % 0.00 in 0.00 W/m2
04:29 60.2 °F 36.4 °F 29.88 in Calm   2.0 mph 41 % 0.00 in 0.00 W/m2
04:34 60.1 °F 35.7 °F 29.88 in Calm   4.0 mph 40 % 0.00 in 0.00 W/m2
04:39 60.0 °F 35.6 °F 29.88 in Calm   1.0 mph 40 % 0.00 in 0.00 W/m2
04:44 59.9 °F 36.2 °F 29.88 in Calm   2.0 mph 41 % 0.00 in 0.00 W/m2
04:49 59.8 °F 36.7 °F 29.88 in East 1.0 mph 1.0 mph 42 % 0.00 in 0.00 W/m2
04:54 59.7 °F 36.6 °F 29.88 in ESE 1.0 mph 2.0 mph 42 % 0.00 in 0.00 W/m2
04:59 59.6 °F 37.1 °F 29.88 in East 1.0 mph 2.0 mph 43 % 0.00 in 0.00 W/m2
05:04 59.5 °F 37.0 °F 29.88 in Calm   1.0 mph 43 % 0.00 in 0.00 W/m2
05:09 59.4 °F 36.9 °F 29.88 in Calm     43 % 0.00 in 0.00 W/m2
05:14 59.3 °F 36.2 °F 29.88 in Calm   2.0 mph 42 % 0.00 in 0.00 W/m2
05:19 59.2 °F 36.7 °F 29.88 in Calm   2.0 mph 43 % 0.00 in 0.00 W/m2
05:24 59.1 °F 36.0 °F 29.88 in East 1.0 mph 1.0 mph 42 % 0.00 in 0.00 W/m2
05:29 58.9 °F 36.5 °F 29.88 in Calm   1.0 mph 43 % 0.00 in 0.00 W/m2
05:34 58.8 °F 36.4 °F 29.88 in East 1.0 mph 2.0 mph 43 % 0.00 in 5.00 W/m2
05:39 58.7 °F 35.7 °F 29.88 in Calm   1.0 mph 42 % 0.00 in 7.00 W/m2
05:44 58.6 °F 36.2 °F 29.88 in Calm   2.0 mph 43 % 0.00 in 11.00 W/m2
05:49 58.4 °F 36.0 °F 29.88 in East 1.0 mph 2.0 mph 43 % 0.00 in 14.00 W/m2
05:54 58.3 °F 35.9 °F 29.88 in Calm   5.0 mph 43 % 0.00 in 19.00 W/m2
05:59 58.2 °F 36.4 °F 29.88 in Calm   4.0 mph 44 % 0.00 in 21.00 W/m2
06:04 58.1 °F 35.7 °F 29.88 in Calm   4.0 mph 43 % 0.00 in 26.00 W/m2
06:09 58.1 °F 35.7 °F 29.88 in Calm   4.0 mph 43 % 0.00 in 33.00 W/m2
06:14 58.0 °F 36.2 °F 29.88 in East 1.0 mph 4.0 mph 44 % 0.00 in 46.00 W/m2
06:19 58.0 °F 36.2 °F 29.88 in East 1.0 mph 5.0 mph 44 % 0.00 in 58.00 W/m2
06:24 58.0 °F 36.2 °F 29.88 in Calm   4.0 mph 44 % 0.00 in 70.00 W/m2
06:29 58.1 °F 36.9 °F 29.87 in Calm   4.0 mph 45 % 0.00 in 83.00 W/m2
06:34 58.1 °F 37.5 °F 29.87 in Calm   4.0 mph 46 % 0.00 in 81.00 W/m2
06:39 58.1 °F 37.5 °F 29.87 in Calm   5.0 mph 46 % 0.00 in 113.00 W/m2
06:44 58.1 °F 36.9 °F 29.87 in Calm   4.0 mph 45 % 0.00 in 135.00 W/m2
06:50 58.2 °F 37.5 °F 29.87 in East 4.0 mph 11.0 mph 46 % 0.00 in 146.00 W/m2
06:55 58.3 °F 37.1 °F 29.87 in Calm   9.0 mph 45 % 0.00 in 146.00 W/m2
07:00 58.3 °F 36.5 °F 29.87 in Calm   7.0 mph 44 % 0.00 in 171.00 W/m2
07:05 58.4 °F 37.2 °F 29.87 in ESE 9.0 mph 9.0 mph 45 % 0.00 in 181.00 W/m2
07:10 58.6 °F 39.0 °F 29.87 in ESE 6.0 mph 9.0 mph 48 % 0.00 in 195.00 W/m2
07:15 58.6 °F 38.5 °F 29.87 in ESE 2.0 mph 13.0 mph 47 % 0.00 in 204.00 W/m2
07:20 58.6 °F 37.9 °F 29.87 in ESE 5.0 mph 9.0 mph 46 % 0.00 in 234.00 W/m2
07:25 58.6 °F 37.3 °F 29.87 in East 12.0 mph 13.0 mph 45 % 0.00 in 279.00 W/m2
07:30 58.7 °F 37.4 °F 29.87 in SE 6.0 mph 16.0 mph 45 % 0.00 in 299.00 W/m2
07:35 58.9 °F 38.2 °F 29.87 in ESE 2.0 mph 11.0 mph 46 % 0.00 in 320.00 W/m2
07:40 59.0 °F 38.8 °F 29.87 in Calm   11.0 mph 47 % 0.00 in 338.00 W/m2
07:45 59.2 °F 39.0 °F 29.87 in ESE 5.0 mph 11.0 mph 47 % 0.00 in 353.00 W/m2
07:50 59.5 °F 39.3 °F 29.87 in Calm   11.0 mph 47 % 0.00 in 309.00 W/m2
07:55 59.7 °F 40.0 °F 29.87 in ESE 4.0 mph 11.0 mph 48 % 0.00 in 341.00 W/m2
08:00 60.0 °F 40.3 °F 29.87 in Calm   8.0 mph 48 % 0.00 in 410.00 W/m2
08:05 60.2 °F 41.5 °F 29.87 in SE 4.0 mph 15.0 mph 50 % 0.00 in 427.00 W/m2
08:10 60.5 °F 42.3 °F 29.87 in East 12.0 mph 12.0 mph 51 % 0.00 in 339.00 W/m2
08:15 60.9 °F 42.2 °F 29.88 in Calm   9.0 mph 50 % 0.00 in 452.00 W/m2
08:20 61.2 °F 41.9 °F 29.88 in ESE 1.0 mph 7.0 mph 49 % 0.00 in 468.00 W/m2
08:25 61.7 °F 43.4 °F 29.88 in East 6.0 mph 9.0 mph 51 % 0.00 in 468.00 W/m2
08:30 62.2 °F 44.4 °F 29.88 in East 2.0 mph 7.0 mph 52 % 0.00 in 508.00 W/m2
08:35 62.7 °F 45.3 °F 29.87 in East 4.0 mph 8.0 mph 53 % 0.00 in 476.00 W/m2
08:40 63.0 °F 46.1 °F 29.88 in ESE 2.0 mph 7.0 mph 54 % 0.00 in 492.00 W/m2
08:45 63.3 °F 46.9 °F 29.88 in Calm   4.0 mph 55 % 0.00 in 533.00 W/m2
08:50 63.6 °F 47.2 °F 29.88 in Calm   5.0 mph 55 % 0.00 in 555.00 W/m2
08:55 63.8 °F 46.4 °F 29.88 in Calm   4.0 mph 53 % 0.00 in 570.00 W/m2
09:00 64.1 °F 47.6 °F 29.88 in Calm     55 % 0.00 in 575.00 W/m2
09:05 64.4 °F 47.4 °F 29.89 in Calm     54 % 0.00 in 601.00 W/m2
09:10 64.8 °F 48.3 °F 29.88 in Calm   4.0 mph 55 % 0.00 in 612.00 W/m2
09:15 65.2 °F 46.6 °F 29.88 in Calm   4.0 mph 51 % 0.00 in 601.00 W/m2
09:20 65.6 °F 45.4 °F 29.88 in Calm     48 % 0.00 in 524.00 W/m2
09:25 66.1 °F 47.5 °F 29.88 in Calm     51 % 0.00 in 633.00 W/m2
09:30 66.5 °F 45.7 °F 29.89 in Calm     47 % 0.00 in 619.00 W/m2
09:35 66.8 °F 46.5 °F 29.88 in Calm     48 % 0.00 in 638.00 W/m2
09:40 67.2 °F 48.0 °F 29.89 in Calm     50 % 0.00 in 710.00 W/m2
09:45 67.5 °F 47.1 °F 29.89 in Calm     48 % 0.00 in 601.00 W/m2
09:51 67.8 °F 44.5 °F 29.89 in Calm   4.0 mph 43 % 0.00 in 696.00 W/m2
09:52 68.0 °F 44.7 °F 29.89 in Calm     43 % 0.00 in 707.00 W/m2
09:57 68.4 °F 45.0 °F 29.89 in Calm     43 % 0.00 in 735.00 W/m2
10:02 68.7 °F 46.5 °F 29.89 in Calm   1.0 mph 45 % 0.00 in 703.00 W/m2
10:07 69.1 °F 45.1 °F 29.89 in Calm     42 % 0.00 in 731.00 W/m2
10:08 69.3 °F 45.9 °F 29.89 in Calm     43 % 0.00 in 729.00 W/m2
10:13 69.6 °F 43.6 °F 29.89 in Calm   2.0 mph 39 % 0.00 in 782.00 W/m2
10:23 70.2 °F 43.4 °F 29.89 in Calm     38 % 0.00 in 610.00 W/m2
10:29 70.6 °F 44.5 °F 29.89 in Calm     39 % 0.00 in 812.00 W/m2
10:34 70.8 °F 46.0 °F 29.89 in Calm   4.0 mph 41 % 0.00 in 691.00 W/m2
10:39 71.0 °F 43.4 °F 29.89 in Calm   4.0 mph 37 % 0.00 in 640.00 W/m2
10:44 71.3 °F 46.4 °F 29.89 in Calm     41 % 0.00 in 731.00 W/m2
10:49 71.6 °F 47.9 °F 29.89 in Calm     43 % 0.00 in 768.00 W/m2
10:54 71.9 °F 49.4 °F 29.89 in Calm     45 % 0.00 in 814.00 W/m2
10:59 72.1 °F 50.2 °F 29.89 in Calm     46 % 0.00 in 770.00 W/m2
11:04 72.3 °F 49.2 °F 29.89 in Calm     44 % 0.00 in 819.00 W/m2
11:09 72.5 °F 50.0 °F 29.89 in Calm     45 % 0.00 in 835.00 W/m2
11:14 72.6 °F 50.7 °F 29.89 in SE 1.0 mph 5.0 mph 46 % 0.00 in 877.00 W/m2
11:19 72.9 °F 49.7 °F 29.89 in SE 1.0 mph 1.0 mph 44 % 0.00 in 911.00 W/m2
11:24 73.0 °F 50.4 °F 29.89 in SE 1.0 mph 2.0 mph 45 % 0.00 in 969.00 W/m2
11:29 73.2 °F 50.0 °F 29.89 in Calm   4.0 mph 44 % 0.00 in 795.00 W/m2
11:34 73.3 °F 48.8 °F 29.89 in West 6.0 mph 6.0 mph 42 % 0.00 in 886.00 W/m2
11:39 73.3 °F 48.8 °F 29.89 in Calm   5.0 mph 42 % 0.00 in 954.00 W/m2
11:44 73.4 °F 50.2 °F 29.90 in Calm   5.0 mph 44 % 0.00 in 951.00 W/m2
11:49 73.5 °F 50.3 °F 29.90 in WSW 5.0 mph 6.0 mph 44 % 0.00 in 858.00 W/m2
11:54 73.6 °F 50.4 °F 29.90 in Calm   5.0 mph 44 % 0.00 in 949.00 W/m2
11:59 73.8 °F 48.0 °F 29.90 in SW 2.0 mph 6.0 mph 40 % 0.00 in 893.00 W/m2
12:04 73.9 °F 48.7 °F 29.90 in SSW 1.0 mph 6.0 mph 41 % 0.00 in 916.00 W/m2
12:09 74.0 °F 49.5 °F 29.90 in SW 5.0 mph 5.0 mph 42 % 0.00 in 889.00 W/m2
12:14 74.5 °F 49.3 °F 29.90 in WSW 1.0 mph 7.0 mph 41 % 0.00 in 979.00 W/m2
12:19 74.7 °F 44.5 °F 29.90 in Calm   4.0 mph 34 % 0.00 in 842.00 W/m2
12:24 74.7 °F 46.7 °F 29.90 in Calm   4.0 mph 37 % 0.00 in 1002.00 W/m2
12:29 74.9 °F 47.6 °F 29.90 in WNW 1.0 mph 9.0 mph 38 % 0.00 in 997.00 W/m2
12:34 74.9 °F 46.9 °F 29.90 in WNW 3.0 mph 4.0 mph 37 % 0.00 in 930.00 W/m2
12:39 74.7 °F 46.7 °F 29.90 in WNW 2.0 mph 5.0 mph 37 % 0.00 in 969.00 W/m2
12:44 74.6 °F 42.8 °F 29.90 in West 2.0 mph 4.0 mph 32 % 0.00 in 976.00 W/m2
12:49 74.8 °F 43.0 °F 29.90 in Calm   6.0 mph 32 % 0.00 in 991.00 W/m2
12:54 75.0 °F 43.2 °F 29.90 in Calm   6.0 mph 32 % 0.00 in 984.00 W/m2
12:59 75.2 °F 44.2 °F 29.90 in SW 2.0 mph 8.0 mph 33 % 0.00 in 983.00 W/m2
13:04 75.6 °F 42.9 °F 29.90 in Calm   7.0 mph 31 % 0.00 in 979.00 W/m2
13:09 76.1 °F 42.5 °F 29.90 in West 1.0 mph 4.0 mph 30 % 0.00 in 976.00 W/m2
13:14 76.6 °F 44.6 °F 29.89 in Calm   7.0 mph 32 % 0.00 in 977.00 W/m2
13:19 76.8 °F 43.0 °F 29.89 in Calm   7.0 mph 30 % 0.00 in 977.00 W/m2
13:24 76.9 °F 41.3 °F 29.90 in WSW 5.0 mph 9.0 mph 28 % 0.00 in 976.00 W/m2
13:29 77.2 °F 42.5 °F 29.89 in Calm   7.0 mph 29 % 0.00 in 970.00 W/m2
13:34 77.3 °F 42.6 °F 29.89 in West 3.0 mph 7.0 mph 29 % 0.00 in 969.00 W/m2
13:39 77.1 °F 42.4 °F 29.89 in Calm   6.0 mph 29 % 0.00 in 962.00 W/m2
13:41 77.1 °F 43.3 °F 29.89 in WSW 3.0 mph 3.0 mph 30 % 0.00 in 956.00 W/m2
13:47 77.3 °F 40.8 °F 29.89 in Calm     27 % 0.00 in 960.00 W/m2
13:52 77.6 °F 45.4 °F 29.89 in South 4.0 mph 7.0 mph 32 % 0.00 in 960.00 W/m2
13:57 78.1 °F 40.5 °F 29.89 in Calm   4.0 mph 26 % 0.00 in 958.00 W/m2
14:02 78.7 °F 38.9 °F 29.89 in Calm   1.0 mph 24 % 0.00 in 960.00 W/m2
14:07 78.8 °F 35.6 °F 29.90 in SSW 2.0 mph 4.0 mph 21 % 0.00 in 900.00 W/m2
14:12 78.9 °F 35.7 °F 29.90 in South 6.0 mph 6.0 mph 21 % 0.00 in 935.00 W/m2
14:17 79.3 °F 37.2 °F 29.90 in Calm   5.0 mph 22 % 0.00 in 942.00 W/m2
14:22 79.7 °F 38.7 °F 29.89 in SSW 2.0 mph 6.0 mph 23 % 0.00 in 930.00 W/m2
14:27 79.7 °F 38.7 °F 29.89 in West 1.0 mph 2.0 mph 23 % 0.00 in 923.00 W/m2
14:32 79.6 °F 36.3 °F 29.89 in SSW 6.0 mph 7.0 mph 21 % 0.00 in 923.00 W/m2
14:37 79.8 °F 33.9 °F 29.89 in SE 1.0 mph 8.0 mph 19 % 0.00 in 912.00 W/m2
14:42 80.2 °F 34.2 °F 29.89 in SSE 6.0 mph 6.0 mph 19 % 0.00 in 909.00 W/m2
14:47 80.5 °F 35.8 °F 29.89 in SW 5.0 mph 6.0 mph 20 % 0.00 in 882.00 W/m2
14:52 80.6 °F 35.9 °F 29.89 in South 6.0 mph 7.0 mph 20 % 0.00 in 896.00 W/m2
14:57 80.7 °F 34.7 °F 29.89 in Calm     19 % 0.00 in 889.00 W/m2
15:02 80.7 °F 30.4 °F 29.89 in Calm     16 % 0.00 in 879.00 W/m2
15:07 80.9 °F 30.5 °F 29.89 in Calm   6.0 mph 16 % 0.00 in 868.00 W/m2
15:12 80.9 °F 29.0 °F 29.89 in Calm     15 % 0.00 in 856.00 W/m2
15:17 80.7 °F 30.4 °F 29.89 in SSW 1.0 mph 5.0 mph 16 % 0.00 in 846.00 W/m2
15:22 80.5 °F 28.6 °F 29.89 in SW 2.0 mph 4.0 mph 15 % 0.00 in 838.00 W/m2
15:27 80.3 °F 26.8 °F 29.89 in WSW 2.0 mph 7.0 mph 14 % 0.00 in 830.00 W/m2
15:32 80.2 °F 30.0 °F 29.89 in Calm   3.0 mph 16 % 0.00 in 826.00 W/m2
15:37 80.1 °F 28.3 °F 29.89 in Calm     15 % 0.00 in 761.00 W/m2
15:42 80.0 °F 29.8 °F 29.89 in Calm     16 % 0.00 in 780.00 W/m2
15:47 79.9 °F 32.7 °F 29.88 in Calm   2.0 mph 18 % 0.00 in 703.00 W/m2
15:52 79.8 °F 32.6 °F 29.88 in SE 1.0 mph 1.0 mph 18 % 0.00 in 770.00 W/m2
15:57 79.7 °F 31.1 °F 29.88 in Calm     17 % 0.00 in 738.00 W/m2
16:02 79.6 °F 35.0 °F 29.88 in South 7.0 mph 10.0 mph 20 % 0.00 in 752.00 W/m2
16:07 79.4 °F 33.6 °F 29.88 in Calm     19 % 0.00 in 731.00 W/m2
16:12 79.4 °F 34.9 °F 29.88 in WSW 1.0 mph 6.0 mph 20 % 0.00 in 522.00 W/m2
16:17 79.4 °F 33.6 °F 29.88 in Calm   4.0 mph 19 % 0.00 in 443.00 W/m2
16:22 79.2 °F 32.1 °F 29.88 in SW 1.0 mph 6.0 mph 18 % 0.00 in 374.00 W/m2
16:27 79.1 °F 33.3 °F 29.88 in Calm   4.0 mph 19 % 0.00 in 540.00 W/m2
16:32 78.9 °F 36.9 °F 29.88 in WSW 4.0 mph 5.0 mph 22 % 0.00 in 492.00 W/m2
16:37 78.7 °F 34.3 °F 29.88 in SW 2.0 mph 6.0 mph 20 % 0.00 in 571.00 W/m2
16:42 78.6 °F 36.6 °F 29.88 in Calm   3.0 mph 22 % 0.00 in 608.00 W/m2
16:47 78.5 °F 36.5 °F 29.88 in Calm     22 % 0.00 in 489.00 W/m2
16:52 78.5 °F 35.4 °F 29.88 in Calm     21 % 0.00 in 302.00 W/m2
16:57 78.5 °F 37.7 °F 29.88 in Calm   4.0 mph 23 % 0.00 in 301.00 W/m2
17:03 78.3 °F 40.6 °F 29.88 in Calm   2.0 mph 26 % 0.00 in 469.00 W/m2
17:08 78.1 °F 39.5 °F 29.88 in Calm     25 % 0.00 in 671.00 W/m2
17:13 78.0 °F 39.4 °F 29.87 in Calm   3.0 mph 25 % 0.00 in 480.00 W/m2
17:18 77.9 °F 42.2 °F 29.87 in Calm   4.0 mph 28 % 0.00 in 355.00 W/m2
17:23 77.8 °F 39.2 °F 29.88 in Calm     25 % 0.00 in 570.00 W/m2
17:28 77.8 °F 37.1 °F 29.87 in WSW 1.0 mph 1.0 mph 23 % 0.00 in 568.00 W/m2
17:33 77.8 °F 40.2 °F 29.87 in Calm     26 % 0.00 in 471.00 W/m2
17:38 77.7 °F 40.1 °F 29.87 in Calm     26 % 0.00 in 362.00 W/m2
17:43 77.7 °F 41.1 °F 29.87 in Calm   1.0 mph 27 % 0.00 in 431.00 W/m2
17:48 77.6 °F 42.0 °F 29.87 in Calm   2.0 mph 28 % 0.00 in 469.00 W/m2
17:53 77.6 °F 40.0 °F 29.87 in Calm   3.0 mph 26 % 0.00 in 443.00 W/m2
17:58 77.5 °F 40.9 °F 29.87 in Calm     27 % 0.00 in 373.00 W/m2
18:03 77.5 °F 41.9 °F 29.87 in Calm     28 % 0.00 in 381.00 W/m2
18:08 77.4 °F 39.9 °F 29.87 in Calm   2.0 mph 26 % 0.00 in 385.00 W/m2
18:13 77.3 °F 40.8 °F 29.87 in Calm     27 % 0.00 in 364.00 W/m2
18:18 77.2 °F 41.6 °F 29.87 in Calm   1.0 mph 28 % 0.00 in 348.00 W/m2
18:23 77.1 °F 45.0 °F 29.87 in Calm     32 % 0.00 in 336.00 W/m2
18:28 76.9 °F 44.8 °F 29.87 in Calm   2.0 mph 32 % 0.00 in 279.00 W/m2
18:33 76.8 °F 43.9 °F 29.87 in Calm     31 % 0.00 in 294.00 W/m2
18:38 76.6 °F 43.7 °F 29.87 in West 1.0 mph 1.0 mph 31 % 0.00 in 272.00 W/m2
18:43 76.5 °F 43.7 °F 29.87 in Calm   3.0 mph 31 % 0.00 in 264.00 W/m2
18:48 76.4 °F 44.4 °F 29.87 in Calm   2.0 mph 32 % 0.00 in 244.00 W/m2
18:53 76.2 °F 45.0 °F 29.87 in Calm     33 % 0.00 in 218.00 W/m2
18:58 76.0 °F 44.8 °F 29.86 in Calm     33 % 0.00 in 213.00 W/m2
19:03 75.8 °F 46.2 °F 29.86 in Calm     35 % 0.00 in 193.00 W/m2
19:08 75.5 °F 46.7 °F 29.86 in Calm   1.0 mph 36 % 0.00 in 174.00 W/m2
19:13 75.1 °F 46.3 °F 29.86 in Calm     36 % 0.00 in 141.00 W/m2
19:18 74.9 °F 44.7 °F 29.86 in Calm   1.0 mph 34 % 0.00 in 113.00 W/m2
19:23 74.7 °F 46.7 °F 29.87 in Calm     37 % 0.00 in 113.00 W/m2
19:28 74.3 °F 48.4 °F 29.87 in Calm     40 % 0.00 in 86.00 W/m2
19:34 73.8 °F 47.3 °F 29.87 in Calm   1.0 mph 39 % 0.00 in 77.00 W/m2
19:39 73.4 °F 46.3 °F 29.87 in Calm     38 % 0.00 in 62.00 W/m2
19:44 73.0 °F 46.6 °F 29.87 in Calm     39 % 0.00 in 42.00 W/m2
19:49 72.8 °F 47.8 °F 29.87 in Calm     41 % 0.00 in 35.00 W/m2
19:54 72.6 °F 46.9 °F 29.87 in Calm     40 % 0.00 in 28.00 W/m2
19:59 72.2 °F 47.2 °F 29.87 in Calm   1.0 mph 41 % 0.00 in 21.00 W/m2
20:04 71.7 °F 45.5 °F 29.87 in West 1.0 mph 4.0 mph 39 % 0.00 in 18.00 W/m2
20:09 71.2 °F 45.7 °F 29.87 in Calm   4.0 mph 40 % 0.00 in 14.00 W/m2
20:14 70.6 °F 45.1 °F 29.87 in Calm     40 % 0.00 in 12.00 W/m2
20:19 70.0 °F 45.2 °F 29.88 in Calm     41 % 0.00 in 11.00 W/m2
20:24 69.6 °F 44.2 °F 29.88 in Calm     40 % 0.00 in 7.00 W/m2
20:29 69.2 °F 44.5 °F 29.88 in Calm   4.0 mph 41 % 0.00 in 5.00 W/m2
20:34 68.9 °F 44.2 °F 29.88 in Calm   2.0 mph 41 % 0.00 in 0.00 W/m2
20:39 68.6 °F 44.0 °F 29.88 in Calm     41 % 0.00 in 0.00 W/m2
20:44 68.3 °F 43.7 °F 29.88 in Calm   2.0 mph 41 % 0.00 in 0.00 W/m2
20:49 68.0 °F 42.8 °F 29.88 in Calm     40 % 0.00 in 0.00 W/m2
20:54 67.9 °F 43.4 °F 29.88 in Calm     41 % 0.00 in 0.00 W/m2
20:59 67.8 °F 42.6 °F 29.88 in Calm     40 % 0.00 in 0.00 W/m2
21:04 67.6 °F 43.7 °F 29.89 in Calm     42 % 0.00 in 0.00 W/m2
21:09 67.4 °F 42.3 °F 29.88 in Calm     40 % 0.00 in 0.00 W/m2
21:14 67.2 °F 42.7 °F 29.88 in Calm     41 % 0.00 in 0.00 W/m2
21:19 67.0 °F 41.9 °F 29.88 in Calm     40 % 0.00 in 0.00 W/m2
21:24 66.7 °F 41.6 °F 29.88 in Calm     40 % 0.00 in 0.00 W/m2
21:29 66.6 °F 41.5 °F 29.89 in Calm     40 % 0.00 in 0.00 W/m2
21:34 66.4 °F 40.7 °F 29.89 in Calm     39 % 0.00 in 0.00 W/m2
21:35 66.3 °F 40.6 °F 29.89 in Calm     39 % 0.00 in 0.00 W/m2
21:40 66.2 °F 40.5 °F 29.89 in Calm     39 % 0.00 in 0.00 W/m2
21:45 66.1 °F 40.5 °F 29.89 in Calm     39 % 0.00 in 0.00 W/m2
21:50 65.9 °F 40.3 °F 29.89 in Calm     39 % 0.00 in 0.00 W/m2
21:55 65.8 °F 40.2 °F 29.89 in Calm     39 % 0.00 in 0.00 W/m2
22:00 65.8 °F 41.5 °F 29.89 in Calm   3.0 mph 41 % 0.00 in 0.00 W/m2
22:05 65.6 °F 41.3 °F 29.89 in Calm   2.0 mph 41 % 0.00 in 0.00 W/m2
22:10 65.6 °F 40.0 °F 29.89 in West 2.0 mph 3.0 mph 39 % 0.00 in 0.00 W/m2
22:15 65.5 °F 40.6 °F 29.89 in West 3.0 mph 3.0 mph 40 % 0.00 in 0.00 W/m2
22:20 65.5 °F 40.6 °F 29.90 in West 5.0 mph 5.0 mph 40 % 0.00 in 0.00 W/m2
22:25 65.5 °F 40.6 °F 29.90 in West 4.0 mph 5.0 mph 40 % 0.00 in 0.00 W/m2
22:30 65.4 °F 40.5 °F 29.90 in Calm   8.0 mph 40 % 0.00 in 0.00 W/m2
22:35 65.4 °F 41.7 °F 29.90 in Calm   7.0 mph 42 % 0.00 in 0.00 W/m2
22:40 65.4 °F 41.7 °F 29.90 in Calm   6.0 mph 42 % 0.00 in 0.00 W/m2
22:45 65.3 °F 41.6 °F 29.90 in Calm   6.0 mph 42 % 0.00 in 0.00 W/m2
22:50 65.3 °F 41.6 °F 29.90 in ESE 4.0 mph 8.0 mph 42 % 0.00 in 0.00 W/m2
22:55 65.2 °F 42.2 °F 29.89 in Calm   8.0 mph 43 % 0.00 in 0.00 W/m2
23:00 65.2 °F 42.2 °F 29.89 in ESE 6.0 mph 8.0 mph 43 % 0.00 in 0.00 W/m2
23:05 65.1 °F 41.5 °F 29.90 in Calm   9.0 mph 42 % 0.00 in 0.00 W/m2
23:10 65.1 °F 42.7 °F 29.89 in ESE 4.0 mph 9.0 mph 44 % 0.00 in 0.00 W/m2
23:15 65.1 °F 42.1 °F 29.89 in ESE 5.0 mph 13.0 mph 43 % 0.00 in 0.00 W/m2
23:20 65.0 °F 42.0 °F 29.89 in ESE 2.0 mph 8.0 mph 43 % 0.00 in 0.00 W/m2
23:25 65.0 °F 42.0 °F 29.90 in ESE 2.0 mph 11.0 mph 43 % 0.00 in 0.00 W/m2
23:30 65.0 °F 42.0 °F 29.89 in ESE 9.0 mph 9.0 mph 43 % 0.00 in 0.00 W/m2
23:35 65.0 °F 42.0 °F 29.89 in East 2.0 mph 9.0 mph 43 % 0.00 in 0.00 W/m2
23:40 64.9 °F 41.9 °F 29.89 in ESE 4.0 mph 9.0 mph 43 % 0.00 in 0.00 W/m2
23:45 64.9 °F 41.9 °F 29.89 in ESE 2.0 mph 11.0 mph 43 % 0.00 in 0.00 W/m2
23:50 64.8 °F 41.8 °F 29.89 in ESE 6.0 mph 12.0 mph 43 % 0.00 in 0.00 W/m2
23:55 64.8 °F 42.4 °F 29.89 in ESE 9.0 mph 12.0 mph 44 % 0.00 in 0.00 W/m2
Juneau County Weather
Compliments of Weather Underground - 4.5 mb
 WU-history PHP script courtesy of   Juneau County Weather.
powered by Cumulus v1.9.3 (1059)
Ambient Weather VWS v14.00
Top Contact Website Map Copyright © 2007 - 2018 Foresthillweather.com Never base important decisions on this or any weather information obtained from the Internet